Regional Weather Roundup
Issued by NWS Goodland, KS

Home | Current Version | Previous Version | Graphics & Text | Print | Product List | Glossary On
Versions: 1 2 3 4 5 6 7 8 9 10 11 12 13 14 15 16 17 18 19 20 21 22 23 24 25 26 27 28 29 30 31 32 33 34 35 36 37 38 39 40 41 42 43 44 45 46 47 48 49 50
000
ASUS43 KGLD 180908
RWRGLD

GOODLAND FORECAST AREA HOURLY WEATHER ROUNDUP
NATIONAL WEATHER SERVICE GOODLAND KS
300 AM MDT FRI APR 18 2014

...OFFICIAL OBSERVATIONS...

CITY           SKY/WX    TMP DP  RH WIND       PRES   REMARKS
GOODLAND KS    CLEAR     37  34  89 S20       30.11F
HILL CITY KS   CLEAR     40  36  86 S7        30.18S
IMPERIAL NEB   CLEAR     39  35  86 S9        30.06F
MCCOOK NEB     CLEAR     39  37  92 S9        30.13F
AKRON CO       CLEAR     39  34  82 S12       30.00F
BURLINGTON CO  CLEAR     37  32  82 S22       30.09F
LIMON CO       CLEAR     31  30  96 SE7       30.08F
$$

...UNOFFICIAL OBSERVATIONS...

CITY           SKY/WX    TMP DP  RH WIND       PRES   REMARKS
COLBY KS       CLEAR     39  39 100 S14       30.13S FOG
LENORA KS        N/A     38  32  79 S9          N/A
LEOTI KS         N/A     37  32  81 SW6         N/A
NORTON KS      CLEAR     36  34  93 SE7       30.15S
OBERLIN KS     FAIR      39  37  93 S12       30.13F
SHARON SPRINGS   N/A     36  34  91 S13         N/A
ST FRANCIS KS  CLEAR     37  34  87 SW14G21   30.08S
WAKEENEY KS      N/A     39  37  89 MISG        N/A
TRENTON NEB      N/A     37  32  82 S9          N/A
KIT CARSON CO    N/A     34  31  90 MISG        N/A
WRAY CO        FAIR      41  36  81 S10       30.05F
$$



USA.gov is the U.S. government's official web portal to all federal, state and local government web resources and services.